User: anonymous   Login
Location: Unspecified
(0.0000°N, 0.0000°E)
Time: 08:52:14
(UTC+00:00)
Language:

GALILEO 8 (264) - Orbit

View from above orbital plane
View from above orbital plane
View from above satellite
View from above satellite

Ground track
Ground track

The orbit data is extracted from the following two-line orbital elements,

1 40545U 15017B   17177.74926457 -.00000066 +00000-0 +00000-0 0  9992
2 40545 055.6280 071.7434 0000779 100.0237 260.0282 01.70474960013998
Epoch (UTC): 26 June 2017 17:58:56
Eccentricity: 0.0000779
inclination: 55.6280°
perigee height: 23219 km
apogee height: 23224 km
right ascension of ascending node: 71.7434°
argument of perigee: 100.0237°
revolutions per day: 1.70474960
mean anomaly at epoch: 260.0282°
orbit number at epoch: 1399

The dashed part of the orbit path shows where the satellite is in the earth's shadow,  

DLR